Peoria, IL

12:40 AM CST on January 24, 2018 (GMT -0600)
Greater Peoria Regional

Weather History for KPIA - May, 2012

Change the Weather History Date:

Wednesday, May 30, 2012

  Actual Average Record
Temperature  
Mean Temperature 63 °F 67 °F  
Max Temperature 73 °F 78 °F 98 °F (1934)
Min Temperature 52 °F 56 °F 37 °F (1930)
Degree Days  
Heating Degree Days 2 2  
Month to date heating degree days 46 145  
Since 1 July heating degree days 4571 5810  
Cooling Degree Days 0 4  
Month to date cooling degree days 142 63  
Year to date cooling degree days 193 77  
Growing Degree Days 12 (Base 50)    
Moisture  
Dew Point 43 °F    
Average Humidity 57    
Maximum Humidity 83    
Minimum Humidity 31    
Precipitation  
Precipitation 0.00 in 0.13 in 1.46 in (2004)
Month to date precipitation 1.57 4.20  
Year to date precipitation 8.54 14.20  
Snow  
Snow 0.00 in 0.00 in 0.00 in ()
Month to date snowfall 0.0 0.0  
Since 1 July snowfall 11.5 24.6  
Snow Depth 0.00 in    
Sea Level Pressure  
Sea Level Pressure 29.93 in    
Wind  
Wind Speed 6 mph (NNW)    
Max Wind Speed 16 mph    
Max Gust Speed 24 mph    
Visibility 10 miles    
Events      
T = Trace of Precipitation, MM = Missing Value Source: NWS Daily Summary

Daily Weather History Graph

Daily Weather History Graph

Search for Another Location

Airport or City:

Trip Planner

Search our weather history database for the weather conditions in past years. The results will help you decide how hot, cold, wet, or windy it might be!

Date:

Astronomy

May. 30, 2012 Rise Set
Actual Time 5:30 AM CDT 8:22 PM CDT
Civil Twilight 4:58 AM CDT 8:55 PM CDT
Nautical Twilight 4:17 AM CDT 9:36 PM CDT
Astronomical Twilight 3:30 AM CDT 10:23 PM CDT
Moon 2:59 PM CDT (5/30) 1:57 AM CDT (5/30)
Length of Visible Light 15h 56m
Length of Day
14h 51m
Waxing Gibbous, 70% of the Moon is Illuminated
May 30
Waxing Gibbous
Jun 4
Full
Jun 11
Last Quarter
Jun 19
New
Jun 26
First Quarter

Hourly Weather History & Observations

Time (CDT) Temp. Dew Point Humidity Pressure Visibility Wind Dir Wind Speed Gust Speed Precip Events Conditions
12:54 AM 64.0 °F 44.1 °F 48% 29.91 in 10.0 mi North 4.6 mph - N/A   Clear
1:54 AM 61.0 °F 44.1 °F 54% 29.92 in 10.0 mi NNW 3.5 mph - N/A   Clear
2:54 AM 59.0 °F 44.1 °F 58% 29.92 in 10.0 mi Calm Calm - N/A   Clear
3:54 AM 57.0 °F 44.1 °F 62% 29.90 in 10.0 mi Calm Calm - N/A   Clear
4:54 AM 53.1 °F 46.0 °F 77% 29.91 in 10.0 mi Calm Calm - N/A   Clear
5:54 AM 52.0 °F 46.0 °F 80% 29.94 in 10.0 mi West 3.5 mph - N/A   Clear
6:54 AM 57.9 °F 45.0 °F 62% 29.96 in 10.0 mi NW 5.8 mph - N/A   Clear
7:54 AM 60.1 °F 46.0 °F 60% 29.96 in 10.0 mi NNW 10.4 mph 17.3 mph N/A   Clear
8:54 AM 64.0 °F 46.9 °F 54% 29.96 in 10.0 mi NNW 5.8 mph - N/A   Clear
9:54 AM 64.9 °F 44.1 °F 47% 29.96 in 10.0 mi NW 8.1 mph 17.3 mph N/A   Clear
10:54 AM 66.9 °F 42.1 °F 40% 29.95 in 10.0 mi NNW 11.5 mph 18.4 mph N/A   Clear
11:54 AM 69.1 °F 41.0 °F 36% 29.96 in 10.0 mi West 12.7 mph 19.6 mph N/A   Clear
12:54 PM 70.0 °F 41.0 °F 35% 29.95 in 10.0 mi West 9.2 mph - N/A   Clear
1:54 PM 71.1 °F 41.0 °F 34% 29.93 in 10.0 mi NNW 10.4 mph 17.3 mph N/A   Clear
2:54 PM 72.0 °F 42.1 °F 34% 29.92 in 10.0 mi North 10.4 mph - N/A   Clear
3:54 PM 73.0 °F 43.0 °F 34% 29.92 in 10.0 mi Variable 4.6 mph - N/A   Clear
4:54 PM 72.0 °F 41.0 °F 33% 29.90 in 10.0 mi North 8.1 mph - N/A   Clear
5:54 PM 72.0 °F 39.9 °F 31% 29.90 in 10.0 mi North 6.9 mph - N/A   Clear
6:54 PM 70.0 °F 39.9 °F 33% 29.91 in 10.0 mi NNE 4.6 mph - N/A   Clear
7:54 PM 66.0 °F 42.1 °F 42% 29.90 in 10.0 mi NNE 4.6 mph - N/A   Clear
8:54 PM 63.0 °F 43.0 °F 48% 29.89 in 10.0 mi NE 6.9 mph - N/A   Clear
9:54 PM 60.1 °F 43.0 °F 53% 29.92 in 10.0 mi NE 3.5 mph - N/A   Clear
10:54 PM 60.1 °F 43.0 °F 53% 29.94 in 10.0 mi NNE 3.5 mph - N/A   Clear
11:54 PM 57.0 °F 44.1 °F 62% 29.95 in 10.0 mi ENE 5.8 mph - N/A   Clear